Date String (YYYY-MM-DD hh:mm:ss) UTC,Instrument flags,Ambient pressure (hPa),Sample flow (lpm),Bypass flow (lpm),Sample temperature (°C),Ambient temperature (°C),ASC tube jacket temperature (°C),LED temperature (°C),Box temperature (°C),Sample RH (%),Span deviation,Mass concentration (μg/m³),Mass concentration (μg/m³),Mass concentration (μg/m³)
DateTimeUTC,F1_M11,P_M11,Q1_M11,Q2_M11,T1_M11,T2_M11,T3_M11,T4_M11,T5_M11,U1_M11,ZSPAN_M11,X0_M11,X2_M11,X1_M11
2022-02-12 03:00:00,,0833.8,4.98,0.00,22.5,23.0,00.0,31.2,24.4,13.1,0000.0,0002.96,0000.95,0000.70
2022-02-12 03:01:00,,0833.9,5.00,0.00,22.5,22.8,00.0,31.2,24.4,13.1,0000.0,0003.05,0000.95,0000.68
2022-02-12 03:02:00,,0833.9,5.00,0.00,22.5,22.5,00.0,31.3,24.4,13.0,0000.0,0003.09,0000.93,0000.66
2022-02-12 03:03:00,,0833.8,5.01,0.00,22.4,22.3,00.0,31.3,24.3,13.0,0000.0,0003.21,0000.92,0000.64
2022-02-12 03:04:00,,0833.8,5.00,0.00,22.4,22.2,00.0,31.3,24.2,12.9,0000.0,0003.18,0000.90,0000.63
2022-02-12 03:05:00,,0833.9,5.00,0.00,22.4,22.0,00.0,31.3,24.2,12.9,0000.0,0002.33,0000.88,0000.62
2022-02-12 03:06:00,,0833.9,4.99,0.00,22.4,21.9,00.0,31.3,24.2,12.9,0000.0,0001.91,0000.87,0000.62
2022-02-12 03:07:00,,0834.0,5.01,0.00,22.4,21.8,00.0,31.3,24.1,12.8,0000.0,0001.91,0000.87,0000.62
2022-02-12 03:08:00,,0833.9,5.00,0.00,22.3,21.7,00.0,31.3,24.1,12.8,0000.0,0001.83,0000.86,0000.62
2022-02-12 03:09:00,,0834.0,4.99,0.00,22.3,21.7,00.0,31.3,24.0,12.8,0000.0,0001.87,0000.86,0000.62
2022-02-12 03:10:00,,0834.0,5.00,0.00,22.3,21.6,00.0,31.3,24.0,12.7,0000.0,0001.93,0000.86,0000.63
2022-02-12 03:11:00,,0834.0,4.99,0.00,22.3,21.5,00.0,31.3,24.0,12.7,0000.0,0001.95,0000.89,0000.64
2022-02-12 03:12:00,,0834.0,5.01,0.00,22.2,21.5,00.0,31.3,24.0,12.7,0000.0,0001.87,0000.88,0000.64
2022-02-12 03:13:00,,0834.0,4.99,0.00,22.2,21.5,00.0,31.2,23.9,12.7,0000.0,0001.86,0000.91,0000.64
2022-02-12 03:14:00,,0834.0,5.00,0.00,22.2,21.4,00.0,31.2,23.9,12.7,0000.0,0001.58,0000.88,0000.63
2022-02-12 03:15:00,,0834.0,5.01,0.00,22.2,21.4,00.0,31.2,23.9,12.7,0000.0,0002.62,0000.90,0000.63
2022-02-12 03:16:00,,0834.0,4.99,0.00,22.2,21.4,00.0,31.2,23.9,12.7,0000.0,0002.58,0000.88,0000.63
2022-02-12 03:17:00,,0834.1,5.01,0.00,22.2,21.4,00.0,31.2,23.9,12.7,0000.0,0002.65,0000.89,0000.63
2022-02-12 03:18:00,,0834.1,4.99,0.00,22.1,21.3,00.0,31.2,23.8,12.7,0000.0,0002.63,0000.89,0000.63
2022-02-12 03:19:00,,0834.1,5.00,0.00,22.1,21.3,00.0,31.2,23.8,12.7,0000.0,0002.92,0000.88,0000.63
2022-02-12 03:20:00,,0834.1,5.02,0.00,22.1,21.3,00.0,31.2,23.8,12.7,0000.0,0003.22,0000.88,0000.63
2022-02-12 03:21:00,,0834.2,4.99,0.00,22.1,21.3,00.0,31.1,23.8,12.7,0000.0,0003.13,0000.88,0000.63
2022-02-12 03:22:00,,0834.3,5.00,0.00,22.2,22.0,00.0,31.2,24.0,12.7,0000.0,0003.12,0000.88,0000.63
2022-02-12 03:23:00,,0834.2,4.98,0.00,22.3,22.8,00.0,31.2,24.2,12.6,0000.0,0003.09,0000.87,0000.63
2022-02-12 03:24:00,,0834.3,5.02,0.00,22.4,23.1,00.0,31.2,24.3,12.5,0000.0,0003.11,0000.86,0000.64
2022-02-12 03:25:00,,0834.3,4.99,0.00,22.4,22.9,00.0,31.3,24.4,12.4,0000.0,0003.49,0000.86,0000.65
2022-02-12 03:26:00,,0834.3,5.00,0.00,22.4,22.6,00.0,31.3,24.3,12.4,0000.0,0002.95,0000.84,0000.66
2022-02-12 03:27:00,,0834.3,5.00,0.00,22.4,22.4,00.0,31.3,24.3,12.4,0000.0,0002.46,0000.82,0000.65
2022-02-12 03:28:00,,0834.3,5.02,0.00,22.4,22.2,00.0,31.3,24.2,12.5,0000.0,0002.57,0000.85,0000.66
2022-02-12 03:29:00,,0834.4,4.99,0.00,22.4,22.0,00.0,31.3,24.2,12.5,0000.0,0002.56,0000.85,0000.66
2022-02-12 03:30:00,,0834.4,5.00,0.00,22.4,21.9,00.0,31.3,24.1,12.5,0000.0,0002.47,0000.87,0000.67
2022-02-12 03:31:00,,0834.4,4.99,0.00,22.3,21.8,00.0,31.3,24.1,12.5,0000.0,0002.09,0000.89,0000.68
2022-02-12 03:32:00,,0834.4,5.01,0.00,22.3,21.7,00.0,31.3,24.0,12.5,0000.0,0002.11,0000.90,0000.68
2022-02-12 03:33:00,,0834.4,5.00,0.00,22.3,21.7,00.0,31.3,24.0,12.6,0000.0,0002.15,0000.92,0000.67
2022-02-12 03:34:00,,0834.4,5.00,0.00,22.3,21.6,00.0,31.3,24.0,12.6,0000.0,0002.17,0000.95,0000.67
2022-02-12 03:35:00,,0834.4,5.01,0.00,22.2,21.6,00.0,31.3,24.0,12.6,0000.0,0002.39,0000.95,0000.68
2022-02-12 03:36:00,,0834.4,5.01,0.00,22.2,21.6,00.0,31.3,24.0,12.7,0000.0,0002.00,0000.93,0000.67
2022-02-12 03:37:00,,0834.4,4.99,0.00,22.2,21.5,00.0,31.2,23.9,12.7,0000.0,0002.02,0000.95,0000.68
2022-02-12 03:38:00,,0834.4,4.99,0.00,22.2,21.5,00.0,31.2,23.9,12.7,0000.0,0001.98,0000.96,0000.69
2022-02-12 03:39:00,,0834.4,5.01,0.00,22.2,21.4,00.0,31.2,23.9,12.7,0000.0,0001.94,0000.98,0000.70
2022-02-12 03:40:00,,0834.4,4.99,0.00,22.2,21.4,00.0,31.2,23.9,12.7,0000.0,0002.05,0001.03,0000.73
2022-02-12 03:41:00,,0834.3,5.01,0.00,22.1,21.4,00.0,31.2,23.8,12.8,0000.0,0002.14,0001.07,0000.74
2022-02-12 03:42:00,,0834.3,4.98,0.00,22.1,21.3,00.0,31.2,23.8,12.8,0000.0,0002.13,0001.09,0000.76
2022-02-12 03:43:00,,0834.3,5.01,0.00,22.1,21.3,00.0,31.2,23.8,12.8,0000.0,0002.25,0001.13,0000.78
2022-02-12 03:44:00,,0834.3,5.01,0.00,22.1,21.3,00.0,31.1,23.8,12.8,0000.0,0002.23,0001.12,0000.79
2022-02-12 03:45:00,,0834.4,4.99,0.00,22.1,21.2,00.0,31.1,23.8,12.9,0000.0,0002.23,0001.11,0000.81
2022-02-12 03:46:00,,0834.4,5.01,0.00,22.0,21.2,00.0,31.1,23.8,12.9,0000.0,0002.05,0001.13,0000.81
2022-02-12 03:47:00,,0834.4,5.00,0.00,22.0,21.2,00.0,31.1,23.7,12.9,0000.0,0002.02,0001.15,0000.82
2022-02-12 03:48:00,,0834.4,4.99,0.00,22.0,21.2,00.0,31.1,23.7,12.9,0000.0,0002.31,0001.15,0000.82
2022-02-12 03:49:00,,0834.4,5.00,0.00,22.1,21.8,00.0,31.1,23.8,12.9,0000.0,0002.93,0001.15,0000.81
2022-02-12 03:50:00,,0834.5,5.01,0.00,22.2,22.6,00.0,31.2,24.1,12.8,0000.0,0002.91,0001.13,0000.81
2022-02-12 03:51:00,,0834.5,4.99,0.00,22.3,23.1,00.0,31.2,24.3,12.7,0000.0,0002.84,0001.10,0000.80
2022-02-12 03:52:00,,0834.6,4.99,0.00,22.4,22.9,00.0,31.2,24.4,12.7,0000.0,0002.74,0001.07,0000.79
2022-02-12 03:53:00,,0834.6,5.00,0.00,22.4,22.7,00.0,31.2,24.4,12.7,0000.0,0003.15,0001.09,0000.77
2022-02-12 03:54:00,,0834.6,5.00,0.00,22.4,22.5,00.0,31.2,24.3,12.7,0000.0,0003.20,0001.05,0000.75
2022-02-12 03:55:00,,0834.6,5.01,0.00,22.4,22.3,00.0,31.3,24.2,12.7,0000.0,0003.33,0001.09,0000.74
2022-02-12 03:56:00,,0834.6,4.99,0.00,22.4,22.2,00.0,31.3,24.2,12.7,0000.0,0003.59,0001.13,0000.74
2022-02-12 03:57:00,,0834.7,4.99,0.00,22.4,22.0,00.0,31.3,24.2,12.7,0000.0,0004.82,0001.16,0000.74
2022-02-12 03:58:00,,0834.7,5.01,0.00,22.4,21.9,00.0,31.3,24.2,12.7,0000.0,0005.07,0001.21,0000.75
2022-02-12 03:59:00,,0834.7,5.01,0.00,22.4,21.8,00.0,31.3,24.1,12.7,0000.0,0004.91,0001.23,0000.76
